Location: Archemont
(49.1579°N, 1.7598°E)
Time: 20:55:33
(UTC+00:00)

BlueWalker 3 - Pass Details

Date: 02 March 2024
Orbit: 485 x 495 km, 53.2° (Epoch: 21 April)

Event Time Altitude Azimuth Distance (km) Brightness Sun altitude
Rises 19:04:53 0° 294° (WNW) 2,564 7.0 -14.9°
Reaches altitude 10° 19:07:05 10° 292° (WNW) 1,678 5.9 -15.3°
Maximum altitude 19:10:50 65° 210° (SSW) 540 2.1 -15.9°
Enters shadow 19:12:38 28° 137° (SE) 937 2.9 -16.2°
